STARLINK-36756, 67817

Orbit data source: Space-Track

STARLINK-36756, 67817 is a payload satellite owned by SpaceX/Seattle (US) in SSO that was launched on Sun, 15 Feb 2026 UTC via an FALCON 9 launch vehicle from the Air Force Western Test Range (AFWTR). Payload-class satellites include a variety of spacecraft equipped with specific instruments for various scientific and technological missions. These include communications satellites like Starlink; space stations such as the ISS; scientific satellites like the Hubble; Earth observation satellites from companies like Planet Labs, Umbra, and HawkEye 360; GPS; miniature CubeSats for education and research; and military/defense satellites.

Loading next visibility...
Identifier
67817, 2026-032W
Orbit
SSO
Country
Flag of USUS
Related business
Manufacturer
SpaceX/Seattle
Mission
Operational Commercial Communications
Bus & Motor
STARLINK V2MO, Unknown motor
Mass
575 kg wet, ~530 kg dry
Launch date (UTC)
2026-02-15 (4 months ago)
Launch vehicle
FALCON 9
Launch site
Air Force Western Test Range (AFWTR)
Object type
Payload
Rocket body
Debris
Shape & HBR
Box + 2 Pan, 17.7 m
Radar Cross Section
36.964 m², Large (>1 m²)

Expand to show TLE details & history
Last TLE update: 10 hours ago

TLE from 10 hours ago
0 STARLINK-36756
1 67817U 26032W   26171.46535014  .00025576  00000-0  79125-3 0  9999
2 67817  97.2877 359.2213 0001361  85.3130 274.8268 15.33468964 20702
Epoch: 2026-06-20T11:10Z
TLE epoch observation values (Epoch: 2026-06-20T11:10:06.252Z)
Latitude
-0.00001°
Longitude
-76.98433°
Altitude
468.506 km
Speed
7.632 km/s
True Right ascension
23h 56m 53s
True Declination
0° 00' 00"
Sunlit
Object was in daylight at epoch
Visualization orbit readout
Latitude
Unknown
Longitude
Unknown
Altitude
Unknown
Speed
Unknown
Apparent Right ascension
Unknown
Apparent Declination
Unknown
Sunlit
N/A
Visualization observer readout
Local Sidereal Time
08:33:30
Azimuth
Unknown
Elevation
Unknown
Doppler factor
Unknown
Orbital elements
Apogee altitude
463.346 km
Perigee altitude
461.484 km
Semi-major axis
6,840.552 km
Eccentricity
0.00014
Inclination
97.2877°
RAAN
359.2213°
Arg. of periapsis
85.313°
True anomaly
274.81126°
Mean anomaly
274.8268°
Eccentric anomaly
274.81903°
Mean motion
3.83625 °/min
Orbital period
93.84 mins
BSTAR
0.00079125
Loading maneuver chart data...
Computing Atmospheric mass density...
Loading historical data...
Loading historical data...
Loading historical data...
Loading historical data...
Loading historical data...
Loading historical data...
Loading historical data...

Documentation

Showing up to 5 results
|